When you browse on this site, cookies collect data to enhance your experience and personalize the content and advertising you see.
Visit our Privacy Policy to learn more. By continuing to use the site, you agree to this use of cookies and data.

Météo par heure à Rumbek

Ce jour, 4 Juillet, Samedi

Heure Température Précipitation Vent Pression Humidité
00:00 +25°C° 0 mm 1 m/s 721 mmHg 85%
01:00 +24°C° 0 mm 1 m/s 721 mmHg 86%
02:00 +24°C° 0 mm 1 m/s 720 mmHg 87%
03:00 +24°C° 0 mm 1 m/s 721 mmHg 88%
04:00 +24°C° 0 mm 1 m/s 721 mmHg 89%
05:00 +21°C° 0 mm 0 m/s 721 mmHg 89%
06:00 +25°C° 0 mm 1 m/s 722 mmHg 84%
07:00 +26°C° 0 mm 1 m/s 722 mmHg 79%
08:00 +27°C° 0 mm 1 m/s 723 mmHg 75%
09:00 +30°C° 0.1 mm 1 m/s 723 mmHg 67%
10:00 +32°C° 0.1 mm 1 m/s 723 mmHg 60%
11:00 +34°C° 0.1 mm 1 m/s 723 mmHg 52%
12:00 +34°C° 0 mm 1 m/s 722 mmHg 50%
13:00 +36°C° 0 mm 2 m/s 721 mmHg 47%
14:00 +36°C° 0 mm 2 m/s 721 mmHg 45%
15:00 +35°C° 0 mm 2 m/s 720 mmHg 48%
16:00 +34°C° 0 mm 1 m/s 720 mmHg 51%
17:00 +33°C° 0 mm 1 m/s 720 mmHg 54%
18:00 +31°C° 0 mm 1 m/s 720 mmHg 60%
19:00 +29°C° 0 mm 1 m/s 720 mmHg 65%
20:00 +28°C° 0 mm 1 m/s 721 mmHg 71%
21:00 +27°C° 0 mm 1 m/s 721 mmHg 71%
22:00 +27°C° 0 mm 1 m/s 721 mmHg 72%
23:00 +27°C° 0 mm 1 m/s 721 mmHg 72%

Demain, 5 Juillet, Dimanche

Heure Température Précipitation Vent Pression Humidité
00:00 +27°C° 0 mm 1 m/s 721 mmHg 73%
01:00 +26°C° 0 mm 1 m/s 720 mmHg 74%
02:00 +26°C° 0 mm 1 m/s 720 mmHg 75%
03:00 +26°C° 0 mm 1 m/s 720 mmHg 77%
04:00 +25°C° 0 mm 1 m/s 720 mmHg 80%
05:00 +25°C° 0 mm 1 m/s 720 mmHg 82%
06:00 +26°C° 0 mm 1 m/s 720 mmHg 80%
07:00 +27°C° 0 mm 1 m/s 721 mmHg 77%
08:00 +28°C° 0 mm 1 m/s 722 mmHg 75%
09:00 +30°C° 0.9 mm 1 m/s 722 mmHg 71%
10:00 +31°C° 0.9 mm 1 m/s 721 mmHg 68%
11:00 +31°C° 0.9 mm 0 m/s 721 mmHg 65%
12:00 +32°C° 0.7 mm 1 m/s 721 mmHg 63%
13:00 +32°C° 0.7 mm 2 m/s 720 mmHg 62%
14:00 +32°C° 0.7 mm 2 m/s 720 mmHg 61%
15:00 +31°C° 0 mm 2 m/s 720 mmHg 62%
16:00 +31°C° 0 mm 2 m/s 719 mmHg 64%
17:00 +30°C° 0 mm 2 m/s 719 mmHg 66%
18:00 +29°C° 0 mm 2 m/s 719 mmHg 71%
19:00 +27°C° 0 mm 1 m/s 719 mmHg 76%
20:00 +26°C° 0 mm 1 m/s 719 mmHg 81%
21:00 +25°C° 0.1 mm 1 m/s 719 mmHg 82%
22:00 +25°C° 0.1 mm 1 m/s 719 mmHg 83%
23:00 +24°C° 0.1 mm 1 m/s 719 mmHg 85%

Après-demain, 6 Juillet, Lundi

Heure Température Précipitation Vent Pression Humidité
00:00 +24°C° 0.3 mm 1 m/s 719 mmHg 86%
01:00 +24°C° 0.3 mm 1 m/s 719 mmHg 87%
02:00 +24°C° 0.3 mm 1 m/s 719 mmHg 88%
03:00 +24°C° 0.6 mm 1 m/s 719 mmHg 89%
04:00 +24°C° 0.6 mm 1 m/s 720 mmHg 90%
05:00 +24°C° 0.6 mm 1 m/s 720 mmHg 91%
06:00 +24°C° 0.2 mm 1 m/s 720 mmHg 91%
07:00 +24°C° 0.2 mm 1 m/s 721 mmHg 90%
08:00 +25°C° 0.2 mm 1 m/s 722 mmHg 90%
09:00 +27°C° 0.1 mm 1 m/s 722 mmHg 81%
10:00 +29°C° 0.1 mm 1 m/s 722 mmHg 72%
11:00 +31°C° 0.1 mm 1 m/s 722 mmHg 62%
12:00 +32°C° 0.8 mm 1 m/s 721 mmHg 61%
13:00 +32°C° 0.8 mm 1 m/s 720 mmHg 60%
14:00 +32°C° 0.8 mm 1 m/s 720 mmHg 59%
15:00 +31°C° 1.5 mm 1 m/s 720 mmHg 68%
16:00 +29°C° 1.5 mm 1 m/s 720 mmHg 77%
17:00 +28°C° 1.5 mm 1 m/s 719 mmHg 86%
18:00 +27°C° 0.7 mm 1 m/s 720 mmHg 89%
19:00 +26°C° 0.7 mm 2 m/s 720 mmHg 91%
20:00 +25°C° 0.7 mm 2 m/s 721 mmHg 94%
21:00 +25°C° 0.1 mm 1 m/s 721 mmHg 94%
22:00 +24°C° 0.1 mm 1 m/s 721 mmHg 93%
23:00 +24°C° 0.1 mm 1 m/s 721 mmHg 93%

7 Juillet, Mardi

Heure Température Précipitation Vent Pression Humidité
00:00 +24°C° 0.1 mm 1 m/s 721 mmHg 93%
01:00 +24°C° 0.1 mm 1 m/s 720 mmHg 93%
02:00 +24°C° 0.1 mm 1 m/s 720 mmHg 93%
03:00 +24°C° 0 mm 1 m/s 720 mmHg 93%
04:00 +24°C° 0 mm 1 m/s 720 mmHg 93%
05:00 +24°C° 0 mm 1 m/s 720 mmHg 93%
06:00 +24°C° 0.1 mm 2 m/s 721 mmHg 92%
07:00 +25°C° 0.1 mm 2 m/s 722 mmHg 90%
08:00 +25°C° 0.1 mm 2 m/s 722 mmHg 88%
09:00 +25°C° 1.1 mm 2 m/s 722 mmHg 89%
10:00 +25°C° 1.1 mm 2 m/s 722 mmHg 90%
11:00 +26°C° 1.1 mm 2 m/s 722 mmHg 90%
12:00 +26°C° 1.5 mm 2 m/s 722 mmHg 90%
13:00 +26°C° 1.5 mm 2 m/s 721 mmHg 89%
14:00 +26°C° 1.5 mm 2 m/s 721 mmHg 88%
15:00 +26°C° 0.3 mm 2 m/s 721 mmHg 89%
16:00 +26°C° 0.3 mm 1 m/s 720 mmHg 89%
17:00 +25°C° 0.3 mm 1 m/s 720 mmHg 89%
18:00 +23°C° 0.1 mm 0 m/s 721 mmHg 91%
19:00 +22°C° 0.1 mm 0 m/s 721 mmHg 92%
20:00 +22°C° 0.1 mm 0 m/s 722 mmHg 93%
21:00 +22°C° 0 mm 0 m/s 722 mmHg 93%
22:00 +24°C° 0 mm 1 m/s 722 mmHg 93%
23:00 +24°C° 0 mm 1 m/s 722 mmHg 93%

8 Juillet, Mercredi

Heure Température Précipitation Vent Pression Humidité
00:00 +23°C° 0 mm 1 m/s 722 mmHg 93%
01:00 +23°C° 0 mm 1 m/s 721 mmHg 93%
02:00 +23°C° 0 mm 1 m/s 721 mmHg 93%
03:00 +23°C° 0 mm 1 m/s 721 mmHg 93%
04:00 +23°C° 0 mm 1 m/s 721 mmHg 93%
05:00 +23°C° 0 mm 1 m/s 722 mmHg 93%
06:00 +24°C° 0 mm 1 m/s 722 mmHg 91%
07:00 +24°C° 0 mm 1 m/s 723 mmHg 89%
08:00 +25°C° 0 mm 1 m/s 723 mmHg 87%
09:00 +26°C° 0.1 mm 1 m/s 723 mmHg 81%
10:00 +28°C° 0.1 mm 1 m/s 723 mmHg 75%
11:00 +29°C° 0.1 mm 1 m/s 723 mmHg 68%
12:00 +30°C° 0.5 mm 2 m/s 723 mmHg 67%
13:00 +30°C° 0.5 mm 2 m/s 722 mmHg 65%
14:00 +31°C° 0.5 mm 2 m/s 721 mmHg 64%
15:00 +30°C° 0.8 mm 2 m/s 721 mmHg 68%
16:00 +30°C° 0.8 mm 1 m/s 721 mmHg 72%
17:00 +29°C° 0.8 mm 1 m/s 721 mmHg 76%
18:00 +28°C° 0.1 mm 1 m/s 721 mmHg 80%
19:00 +27°C° 0.1 mm 1 m/s 721 mmHg 83%
20:00 +25°C° 0.1 mm 1 m/s 722 mmHg 87%
21:00 +25°C° 0 mm 1 m/s 722 mmHg 88%
22:00 +25°C° 0 mm 1 m/s 722 mmHg 89%
23:00 +24°C° 0 mm 1 m/s 722 mmHg 90%

9 Juillet, Jeudi

Heure Température Précipitation Vent Pression Humidité
00:00 +24°C° 0 mm 1 m/s 721 mmHg 91%
01:00 +24°C° 0 mm 1 m/s 721 mmHg 92%
02:00 +24°C° 0 mm 1 m/s 721 mmHg 92%
03:00 +24°C° 0 mm 1 m/s 721 mmHg 92%
04:00 +24°C° 0 mm 1 m/s 721 mmHg 92%
05:00 +24°C° 0 mm 1 m/s 721 mmHg 91%
06:00 +24°C° 0 mm 1 m/s 722 mmHg 89%
07:00 +25°C° 0 mm 1 m/s 722 mmHg 87%
08:00 +23°C° 0 mm 0 m/s 723 mmHg 85%
09:00 +26°C° 0.2 mm 1 m/s 723 mmHg 83%
10:00 +27°C° 0.2 mm 1 m/s 723 mmHg 80%
11:00 +28°C° 0.2 mm 1 m/s 723 mmHg 78%
12:00 +27°C° 1.1 mm 1 m/s 722 mmHg 80%
13:00 +25°C° 1.1 mm 0 m/s 722 mmHg 82%
14:00 +25°C° 1.1 mm 0 m/s 722 mmHg 85%
15:00 +27°C° 0.2 mm 1 m/s 721 mmHg 86%
16:00 +26°C° 0.2 mm 1 m/s 721 mmHg 88%
17:00 +25°C° 0.2 mm 1 m/s 721 mmHg 90%
18:00 +25°C° 0 mm 1 m/s 722 mmHg 92%
19:00 +24°C° 0 mm 1 m/s 722 mmHg 93%
20:00 +24°C° 0 mm 1 m/s 722 mmHg 94%
21:00 +24°C° 0 mm 1 m/s 722 mmHg 94%
22:00 +24°C° 0 mm 1 m/s 722 mmHg 94%
23:00 +23°C° 0 mm 2 m/s 722 mmHg 94%
Voir plus